• In Österreich
  • Länderverzeichnis
  • Für 7 Tage
  • Wassertemperatur
  • Satellitenkarten
  • Wetterkarte
  • News
  • Widgets
  • user-avatar
    Anmelden

    Stündliche Wetter Galata

    Heute, 22 Mai, Dienstag

    Zeit Temperatur Niederschläge Wind Luftdruck Luftfeuchtigkeit
    00:00 +13°C° 0 mm 3 m/S 758 mmHg 90%
    01:00 +12°C° 0 mm 3 m/S 758 mmHg 90%
    02:00 +12°C° 0 mm 3 m/S 758 mmHg 89%
    03:00 +12°C° 0 mm 3 m/S 758 mmHg 89%
    04:00 +12°C° 0 mm 3 m/S 757 mmHg 88%
    05:00 +12°C° 0 mm 3 m/S 757 mmHg 88%
    06:00 +14°C° 0 mm 4 m/S 758 mmHg 82%
    07:00 +17°C° 0 mm 4 m/S 758 mmHg 76%
    08:00 +19°C° 0 mm 4 m/S 758 mmHg 70%
    09:00 +20°C° 0 mm 4 m/S 758 mmHg 67%
    10:00 +21°C° 0 mm 4 m/S 758 mmHg 64%
    11:00 +22°C° 0 mm 5 m/S 759 mmHg 61%
    12:00 +23°C° 0 mm 5 m/S 758 mmHg 61%
    13:00 +23°C° 0 mm 5 m/S 758 mmHg 61%
    14:00 +25°C° 0 mm 5 m/S 758 mmHg 61%
    15:00 +23°C° 0 mm 5 m/S 758 mmHg 64%
    16:00 +22°C° 0 mm 4 m/S 758 mmHg 68%
    17:00 +22°C° 0 mm 4 m/S 758 mmHg 71%
    18:00 +20°C° 0 mm 4 m/S 758 mmHg 78%
    19:00 +18°C° 0 mm 3 m/S 758 mmHg 85%
    20:00 +17°C° 0 mm 3 m/S 758 mmHg 93%
    21:00 +16°C° 0 mm 2 m/S 758 mmHg 93%
    22:00 +16°C° 0 mm 2 m/S 759 mmHg 93%
    23:00 +15°C° 0 mm 2 m/S 759 mmHg 93%

    Morgen, 23 Mai, Mittwoch

    Zeit Temperatur Niederschläge Wind Luftdruck Luftfeuchtigkeit
    00:00 +15°C° 0 mm 2 m/S 759 mmHg 93%
    01:00 +15°C° 0 mm 2 m/S 759 mmHg 93%
    02:00 +15°C° 0 mm 2 m/S 759 mmHg 93%
    03:00 +14°C° 0 mm 2 m/S 759 mmHg 92%
    04:00 +14°C° 0 mm 2 m/S 759 mmHg 92%
    05:00 +14°C° 0 mm 2 m/S 759 mmHg 92%
    06:00 +16°C° 0 mm 2 m/S 759 mmHg 85%
    07:00 +18°C° 0 mm 2 m/S 759 mmHg 78%
    08:00 +20°C° 0 mm 3 m/S 759 mmHg 72%
    09:00 +21°C° 0 mm 3 m/S 759 mmHg 67%
    10:00 +24°C° 0 mm 3 m/S 759 mmHg 62%
    11:00 +25°C° 0 mm 4 m/S 759 mmHg 57%
    12:00 +25°C° 0 mm 4 m/S 759 mmHg 57%
    13:00 +25°C° 0 mm 4 m/S 758 mmHg 56%
    14:00 +26°C° 0 mm 4 m/S 758 mmHg 56%
    15:00 +25°C° 0 mm 4 m/S 758 mmHg 59%
    16:00 +25°C° 0 mm 4 m/S 757 mmHg 61%
    17:00 +23°C° 0 mm 4 m/S 757 mmHg 63%
    18:00 +21°C° 0 mm 3 m/S 757 mmHg 71%
    19:00 +19°C° 0 mm 2 m/S 757 mmHg 78%
    20:00 +17°C° 0 mm 2 m/S 757 mmHg 85%
    21:00 +17°C° 0 mm 2 m/S 757 mmHg 85%
    22:00 +16°C° 0 mm 1 m/S 757 mmHg 85%
    23:00 +16°C° 0 mm 1 m/S 757 mmHg 85%

    übermorgen, 24 Mai, Donnerstag

    Zeit Temperatur Niederschläge Wind Luftdruck Luftfeuchtigkeit
    00:00 +15°C° 0 mm 1 m/S 757 mmHg 84%
    01:00 +15°C° 0 mm 2 m/S 756 mmHg 83%
    02:00 +15°C° 0 mm 2 m/S 756 mmHg 82%
    03:00 +15°C° 0 mm 2 m/S 756 mmHg 81%
    04:00 +15°C° 0 mm 2 m/S 756 mmHg 81%
    05:00 +15°C° 0 mm 2 m/S 756 mmHg 80%
    06:00 +17°C° 0 mm 3 m/S 756 mmHg 75%
    07:00 +19°C° 0 mm 3 m/S 756 mmHg 70%
    08:00 +21°C° 0 mm 3 m/S 756 mmHg 65%
    09:00 +22°C° 0 mm 3 m/S 756 mmHg 61%
    10:00 +25°C° 0 mm 3 m/S 756 mmHg 57%
    11:00 +26°C° 0 mm 3 m/S 756 mmHg 53%
    12:00 +26°C° 0,2 mm 3 m/S 755 mmHg 55%
    13:00 +26°C° 0,2 mm 3 m/S 755 mmHg 57%
    14:00 +26°C° 0,2 mm 3 m/S 755 mmHg 58%
    15:00 +26°C° 0,8 mm 3 m/S 754 mmHg 63%
    16:00 +25°C° 0,8 mm 3 m/S 754 mmHg 68%
    17:00 +24°C° 0,8 mm 3 m/S 754 mmHg 73%
    18:00 +22°C° 0,2 mm 3 m/S 754 mmHg 76%
    19:00 +21°C° 0,2 mm 3 m/S 754 mmHg 79%
    20:00 +19°C° 0,2 mm 2 m/S 754 mmHg 82%
    21:00 +19°C° 0 mm 2 m/S 754 mmHg 81%
    22:00 +19°C° 0 mm 2 m/S 754 mmHg 80%
    23:00 +18°C° 0 mm 2 m/S 754 mmHg 80%

    25 Mai, Freitag

    Zeit Temperatur Niederschläge Wind Luftdruck Luftfeuchtigkeit
    00:00 +18°C° 0 mm 3 m/S 754 mmHg 81%
    01:00 +17°C° 0 mm 3 m/S 754 mmHg 83%
    02:00 +17°C° 0 mm 4 m/S 753 mmHg 85%
    03:00 +17°C° 0 mm 4 m/S 753 mmHg 85%
    04:00 +17°C° 0 mm 4 m/S 753 mmHg 85%
    05:00 +15°C° 0 mm 5 m/S 753 mmHg 85%
    06:00 +17°C° 0 mm 5 m/S 753 mmHg 81%
    07:00 +20°C° 0 mm 5 m/S 754 mmHg 77%
    08:00 +21°C° 0 mm 5 m/S 754 mmHg 73%
    09:00 +22°C° 0,1 mm 6 m/S 754 mmHg 69%
    10:00 +24°C° 0,1 mm 6 m/S 754 mmHg 65%
    11:00 +26°C° 0,1 mm 6 m/S 754 mmHg 61%
    12:00 +26°C° 0,3 mm 5 m/S 754 mmHg 61%
    13:00 +26°C° 0,3 mm 5 m/S 754 mmHg 60%
    14:00 +27°C° 0,3 mm 5 m/S 753 mmHg 60%
    15:00 +26°C° 0,7 mm 4 m/S 753 mmHg 64%
    16:00 +26°C° 0,7 mm 3 m/S 753 mmHg 68%
    17:00 +25°C° 0,7 mm 2 m/S 753 mmHg 72%
    18:00 +24°C° 0,7 mm 2 m/S 753 mmHg 75%
    19:00 +21°C° 0,7 mm 2 m/S 753 mmHg 79%
    20:00 +20°C° 0,7 mm 2 m/S 753 mmHg 83%
    21:00 +19°C° 0,1 mm 2 m/S 753 mmHg 84%
    22:00 +19°C° 0,1 mm 3 m/S 753 mmHg 85%
    23:00 +19°C° 0,1 mm 3 m/S 753 mmHg 86%

    26 Mai, Samstag

    Zeit Temperatur Niederschläge Wind Luftdruck Luftfeuchtigkeit
    00:00 +18°C° 0 mm 3 m/S 753 mmHg 88%
    01:00 +18°C° 0 mm 3 m/S 753 mmHg 90%
    02:00 +18°C° 0 mm 3 m/S 753 mmHg 92%
    03:00 +18°C° 0,1 mm 4 m/S 753 mmHg 93%
    04:00 +18°C° 0,1 mm 4 m/S 753 mmHg 95%
    05:00 +17°C° 0,1 mm 4 m/S 753 mmHg 96%
    06:00 +19°C° 0 mm 4 m/S 753 mmHg 94%
    07:00 +20°C° 0 mm 5 m/S 754 mmHg 92%
    08:00 +21°C° 0 mm 5 m/S 754 mmHg 90%
    09:00 +22°C° 0,2 mm 5 m/S 754 mmHg 86%
    10:00 +23°C° 0,2 mm 5 m/S 754 mmHg 83%
    11:00 +25°C° 0,2 mm 5 m/S 755 mmHg 79%
    12:00 +25°C° 0,5 mm 5 m/S 754 mmHg 78%
    13:00 +26°C° 0,5 mm 5 m/S 754 mmHg 76%
    14:00 +26°C° 0,5 mm 5 m/S 754 mmHg 75%
    15:00 +26°C° 0,9 mm 5 m/S 754 mmHg 77%
    16:00 +25°C° 0,9 mm 5 m/S 754 mmHg 79%
    17:00 +23°C° 0,9 mm 5 m/S 754 mmHg 81%
    18:00 +22°C° 0,2 mm 5 m/S 754 mmHg 85%
    19:00 +21°C° 0,2 mm 5 m/S 755 mmHg 88%
    20:00 +19°C° 0,2 mm 5 m/S 755 mmHg 91%
    21:00 +19°C° 0 mm 5 m/S 755 mmHg 92%
    22:00 +19°C° 0 mm 5 m/S 755 mmHg 93%
    23:00 +17°C° 0 mm 5 m/S 755 mmHg 94%

    27 Mai, Sonntag

    Zeit Temperatur Niederschläge Wind Luftdruck Luftfeuchtigkeit
    00:00 +17°C° 0 mm 5 m/S 755 mmHg 94%
    01:00 +17°C° 0 mm 6 m/S 755 mmHg 95%
    02:00 +17°C° 0 mm 6 m/S 755 mmHg 95%
    03:00 +17°C° 0 mm 6 m/S 755 mmHg 95%
    04:00 +17°C° 0 mm 6 m/S 755 mmHg 95%
    05:00 +17°C° 0 mm 6 m/S 755 mmHg 95%
    06:00 +17°C° 0,1 mm 6 m/S 755 mmHg 92%
    07:00 +19°C° 0,1 mm 6 m/S 756 mmHg 89%
    08:00 +20°C° 0,1 mm 7 m/S 756 mmHg 86%
    09:00 +21°C° 0,1 mm 7 m/S 756 mmHg 83%
    10:00 +21°C° 0,1 mm 7 m/S 756 mmHg 80%
    11:00 +21°C° 0,1 mm 8 m/S 756 mmHg 77%
    12:00 +22°C° 0,2 mm 8 m/S 756 mmHg 72%
    13:00 +22°C° 0,2 mm 8 m/S 756 mmHg 68%
    14:00 +23°C° 0,2 mm 9 m/S 756 mmHg 64%
    15:00 +22°C° 0 mm 8 m/S 756 mmHg 64%
    16:00 +22°C° 0 mm 8 m/S 756 mmHg 65%
    17:00 +21°C° 0 mm 8 m/S 756 mmHg 65%
    18:00 +20°C° 0 mm 7 m/S 756 mmHg 69%
    19:00 +19°C° 0 mm 6 m/S 756 mmHg 73%
    20:00 +16°C° 0 mm 6 m/S 756 mmHg 76%
    21:00 +16°C° 0 mm 5 m/S 756 mmHg 78%
    22:00 +15°C° 0 mm 5 m/S 756 mmHg 80%
    23:00 +15°C° 0 mm 5 m/S 756 mmHg 82%
    Mehr zeigen